contact:dominique.lefevre@mio.osupytheas.fr, maurice.libes@osupytheas.fr, didier.mallarino@osupytheas.fr
Project:EMSO http://www.emso-fr.org/EMSO-France
Depth: 2436.0 m
Title:EMSO Ligure Ouest : Data MII capteur AQUADOPP
Date,Latitude,Longitude,X_East,Y_North,Z_Up,Amplitude_X,Amplitude_Y,Amplitude_Z,Batterie,SoundSpeed,Heading,Pitch,Roll,Pressure,TIS,Speed,Direction
, degrees North, degrees East, m.s-1, m.s-1,m.s-1, 1, 1, 1, Volt, m.s-1, degree, degree, degree, dbar, degree_C, m.s-1, degree
2021-07-30T00:04:03,42.805,6.029,-0.047,0.014,0.035,101.0,101.0,101.0,13.4,1505.2,326.7,-0.7,1.8,2470.703,13.28,0.049,286.6
2021-07-30T00:07:03,42.805,6.029,-0.037,0.02,-0.031,101.0,103.0,100.0,13.4,1505.2,328.6,-0.8,1.8,2470.713,13.28,0.042,298.4
2021-07-30T00:10:03,42.805,6.029,-0.055,0.028,-0.001,101.0,102.0,101.0,13.4,1505.2,325.3,-0.8,1.8,2470.678,13.28,0.061,297.0
2021-07-30T00:13:03,42.805,6.029,-0.03,0.008,-0.016,101.0,102.0,101.0,13.4,1505.2,326.4,-0.7,1.8,2470.673,13.28,0.031,284.9
2021-07-30T00:16:03,42.805,6.029,-0.032,0.015,-0.005,102.0,102.0,101.0,13.4,1505.2,326.1,-0.8,1.8,2470.694,13.28,0.035,295.1
2021-07-30T00:19:03,42.805,6.029,-0.025,0.022,0.004,101.0,102.0,100.0,13.3,1505.2,329.3,-0.7,1.8,2470.676,13.28,0.033,311.3
2021-07-30T00:22:03,42.805,6.029,-0.023,0.001,-0.013,101.0,102.0,100.0,13.4,1505.2,325.1,-0.7,1.8,2470.653,13.28,0.023,272.5
2021-07-30T00:25:03,42.805,6.029,-0.042,0.007,-0.038,100.0,104.0,100.0,13.3,1505.2,328.1,-0.8,1.8,2470.683,13.28,0.042,279.5
2021-07-30T00:28:03,42.805,6.029,-0.033,-0.003,-0.012,101.0,102.0,100.0,13.4,1505.2,328.8,-0.7,1.8,2470.647,13.28,0.033,264.8
2021-07-30T00:31:03,42.805,6.029,-0.032,0.017,-0.024,101.0,103.0,101.0,13.4,1505.2,324.9,-0.8,1.8,2470.652,13.28,0.036,298.0
2021-07-30T00:34:03,42.805,6.029,-0.029,0.008,-0.001,102.0,102.0,100.0,13.4,1505.2,328.3,-0.7,1.8,2470.639,13.28,0.03,285.4
2021-07-30T00:37:03,42.805,6.029,-0.023,0.024,0.004,103.0,101.0,100.0,13.4,1505.2,328.3,-0.7,1.8,2470.617,13.28,0.033,316.2
2021-07-30T00:40:03,42.805,6.029,-0.038,0.025,-0.015,101.0,102.0,101.0,13.3,1505.2,327.8,-0.8,1.8,2470.627,13.28,0.045,303.3
2021-07-30T00:43:03,42.805,6.029,-0.045,0.017,-0.003,102.0,100.0,100.0,13.4,1505.2,330.4,-0.7,1.8,2470.638,13.28,0.048,290.7
2021-07-30T00:46:03,42.805,6.029,-0.052,0.019,-0.005,102.0,103.0,100.0,13.4,1505.2,330.7,-0.8,1.8,2470.623,13.28,0.055,290.1
2021-07-30T00:49:03,42.805,6.029,-0.022,0.009,0.004,100.0,103.0,101.0,13.4,1505.2,325.3,-0.7,1.8,2470.639,13.28,0.023,292.2
2021-07-30T00:52:03,42.805,6.029,-0.018,0.0,0.001,102.0,102.0,100.0,13.3,1505.2,326.7,-0.7,1.8,2470.614,13.28,0.018,270.0
2021-07-30T00:55:03,42.805,6.029,-0.03,0.008,0.0,102.0,103.0,101.0,13.4,1505.2,326.7,-0.8,1.8,2470.638,13.28,0.031,284.9
2021-07-30T00:58:03,42.805,6.029,-0.015,0.017,-0.02,102.0,103.0,100.0,13.4,1505.2,328.7,-0.8,1.8,2470.595,13.28,0.022,318.6
2021-07-30T01:04:03,42.805,6.029,-0.013,0.006,0.015,104.0,102.0,102.0,13.4,1505.2,329.7,-0.7,1.8,2470.638,13.28,0.014,294.8
2021-07-30T01:07:03,42.805,6.029,-0.046,0.004,-0.037,103.0,101.0,100.0,13.4,1505.2,328.4,-0.7,1.8,2470.633,13.28,0.046,275.0
2021-07-30T01:10:03,42.805,6.029,-0.019,0.011,-0.016,102.0,104.0,99.0,13.4,1505.2,326.8,-0.7,1.9,2470.639,13.28,0.021,300.1
2021-07-30T01:13:03,42.805,6.029,-0.028,0.017,0.001,101.0,103.0,102.0,13.3,1505.2,327.9,-0.8,1.9,2470.693,13.28,0.032,301.3
2021-07-30T01:16:03,42.805,6.029,-0.036,0.005,-0.013,102.0,102.0,101.0,13.4,1505.2,327.7,-0.8,1.8,2470.666,13.28,0.036,277.9
2021-07-30T01:19:03,42.805,6.029,-0.03,0.0,-0.016,101.0,102.0,100.0,13.3,1505.2,327.4,-0.8,1.8,2470.63,13.28,0.03,270.0
2021-07-30T01:22:03,42.805,6.029,-0.024,0.0,0.015,102.0,102.0,100.0,13.4,1505.2,330.6,-0.7,1.8,2470.647,13.28,0.024,270.0
2021-07-30T01:25:03,42.805,6.029,-0.03,0.0,0.001,100.0,102.0,100.0,13.4,1505.2,325.2,-0.7,1.8,2470.641,13.28,0.03,270.0
2021-07-30T01:28:03,42.805,6.029,-0.038,0.008,0.011,103.0,103.0,100.0,13.4,1505.2,328.8,-0.8,1.8,2470.657,13.28,0.038,281.9
2021-07-30T01:31:03,42.805,6.029,-0.016,0.005,-0.004,103.0,101.0,101.0,13.4,1505.2,329.0,-0.7,1.8,2470.615,13.28,0.016,287.4
2021-07-30T01:34:03,42.805,6.029,-0.021,0.004,0.001,102.0,102.0,101.0,13.3,1505.2,329.6,-0.8,1.8,2470.615,13.28,0.021,280.8
2021-07-30T01:37:03,42.805,6.029,-0.021,-0.002,0.007,101.0,102.0,101.0,13.4,1505.2,329.0,-0.7,1.8,2470.611,13.28,0.021,264.6
2021-07-30T01:40:03,42.805,6.029,-0.029,0.0,-0.014,102.0,102.0,101.0,13.4,1505.2,329.9,-0.7,1.8,2470.576,13.29,0.028,270.0
2021-07-30T01:43:03,42.805,6.029,-0.034,0.005,0.008,102.0,102.0,100.0,13.4,1505.2,326.5,-0.7,1.8,2470.626,13.29,0.034,278.4
2021-07-30T01:46:03,42.805,6.029,-0.028,-0.004,0.027,102.0,101.0,100.0,13.4,1505.2,325.1,-0.8,1.8,2470.597,13.29,0.028,261.9
2021-07-30T01:49:03,42.805,6.029,-0.016,0.008,0.0,102.0,102.0,100.0,13.4,1505.2,327.2,-0.8,1.8,2470.62,13.28,0.017,296.6
2021-07-30T01:52:03,42.805,6.029,-0.033,0.011,-0.005,101.0,102.0,101.0,13.4,1505.2,330.3,-0.8,1.8,2470.581,13.29,0.034,288.4
2021-07-30T01:55:03,42.805,6.029,-0.046,0.028,0.01,102.0,102.0,101.0,13.4,1505.2,327.5,-0.7,1.8,2470.598,13.28,0.053,301.3
2021-07-30T01:58:03,42.805,6.029,-0.034,0.007,-0.014,101.0,103.0,100.0,13.3,1505.2,328.6,-0.7,1.8,2470.602,13.29,0.034,281.6
2021-07-30T02:04:03,42.805,6.029,-0.015,0.019,0.003,101.0,102.0,101.0,13.3,1505.2,326.4,-0.7,1.9,2470.615,13.28,0.024,321.7
2021-07-30T02:07:03,42.805,6.029,-0.023,0.016,-0.004,102.0,101.0,100.0,13.4,1505.2,329.2,-0.7,1.8,2470.623,13.28,0.028,304.8
2021-07-30T02:10:03,42.805,6.029,-0.041,0.02,0.003,101.0,102.0,100.0,13.4,1505.2,327.3,-0.8,1.8,2470.615,13.28,0.045,296.0
2021-07-30T02:13:03,42.805,6.029,-0.029,0.006,-0.011,101.0,101.0,100.0,13.4,1505.2,327.2,-0.8,1.8,2470.587,13.28,0.029,281.7
2021-07-30T02:16:03,42.805,6.029,-0.05,0.022,-0.01,102.0,103.0,100.0,13.3,1505.2,325.0,-0.8,1.8,2470.601,13.28,0.054,293.7
2021-07-30T02:19:03,42.805,6.029,-0.053,-0.001,-0.014,102.0,102.0,100.0,13.4,1505.2,327.5,-0.7,1.8,2470.572,13.28,0.053,268.9
2021-07-30T02:22:03,42.805,6.029,-0.026,0.005,0.007,102.0,102.0,100.0,13.4,1505.2,325.6,-0.7,1.8,2470.6,13.28,0.026,280.9
2021-07-30T02:25:03,42.805,6.029,-0.044,0.019,-0.026,102.0,101.0,101.0,13.4,1505.2,327.6,-0.8,1.8,2470.58,13.29,0.047,293.4
2021-07-30T02:28:03,42.805,6.029,-0.04,0.007,-0.018,101.0,101.0,102.0,13.3,1505.2,330.7,-0.8,1.8,2470.584,13.29,0.04,279.9
2021-07-30T02:31:03,42.805,6.029,-0.022,0.026,0.011,101.0,102.0,102.0,13.3,1505.2,328.5,-0.7,1.8,2470.57,13.29,0.034,319.8
2021-07-30T02:34:03,42.805,6.029,-0.023,0.006,-0.021,102.0,102.0,100.0,13.3,1505.2,325.5,-0.7,1.8,2470.586,13.28,0.023,284.6
2021-07-30T02:37:03,42.805,6.029,-0.035,0.001,-0.039,102.0,101.0,101.0,13.4,1505.2,326.6,-0.8,1.8,2470.587,13.29,0.035,271.6
2021-07-30T02:40:03,42.805,6.029,-0.029,0.023,0.005,102.0,101.0,101.0,13.4,1505.2,325.8,-0.7,1.8,2470.6,13.29,0.037,308.4
2021-07-30T02:43:03,42.805,6.029,-0.064,0.029,-0.017,100.0,102.0,100.0,13.4,1505.2,327.0,-0.7,1.8,2470.616,13.29,0.07,294.4
2021-07-30T02:46:03,42.805,6.029,-0.056,0.022,0.004,102.0,102.0,100.0,13.4,1505.2,329.0,-0.8,1.8,2470.555,13.28,0.06,291.4
2021-07-30T02:49:03,42.805,6.029,-0.033,0.028,0.02,101.0,103.0,100.0,13.3,1505.2,325.8,-0.8,1.8,2470.588,13.28,0.043,310.3
2021-07-30T02:52:03,42.805,6.029,-0.03,0.014,-0.009,102.0,102.0,100.0,13.3,1505.2,326.5,-0.7,1.8,2470.555,13.28,0.033,295.0
2021-07-30T02:55:03,42.805,6.029,-0.041,-0.01,-0.029,102.0,103.0,101.0,13.4,1505.2,326.5,-0.7,1.8,2470.556,13.29,0.042,256.3
2021-07-30T02:58:03,42.805,6.029,-0.025,0.0,-0.001,103.0,100.0,99.0,13.4,1505.2,329.1,-0.8,1.8,2470.583,13.29,0.025,270.0
2021-07-30T03:04:03,42.805,6.029,-0.025,-0.002,-0.02,105.0,102.0,100.0,13.4,1505.2,325.8,-0.7,1.9,2470.581,13.28,0.025,265.4
2021-07-30T03:07:03,42.805,6.029,-0.038,0.02,-0.037,101.0,102.0,100.0,13.4,1505.2,326.4,-0.7,1.8,2470.613,13.28,0.042,297.8
2021-07-30T03:10:03,42.805,6.029,-0.023,0.005,-0.022,101.0,102.0,101.0,13.4,1505.2,326.5,-0.7,1.8,2470.611,13.28,0.023,282.3
2021-07-30T03:13:03,42.805,6.029,-0.028,0.027,0.002,102.0,102.0,100.0,13.4,1505.2,327.3,-0.7,1.8,2470.579,13.28,0.038,314.0
2021-07-30T03:16:03,42.805,6.029,-0.002,0.0,0.011,102.0,101.0,101.0,13.4,1505.2,328.9,-0.7,1.9,2470.595,13.28,0.002,270.0
2021-07-30T03:19:03,42.805,6.029,-0.028,0.012,0.008,101.0,101.0,101.0,13.3,1505.2,327.0,-0.7,1.8,2470.564,13.28,0.03,293.2
2021-07-30T03:22:03,42.805,6.029,-0.046,0.01,-0.026,102.0,101.0,100.0,13.4,1505.2,328.6,-0.7,1.8,2470.538,13.28,0.047,282.3
2021-07-30T03:25:03,42.805,6.029,-0.031,0.012,0.001,103.0,101.0,102.0,13.3,1505.2,326.6,-0.7,1.8,2470.567,13.28,0.033,291.2
2021-07-30T03:28:03,42.805,6.029,-0.051,0.0,-0.022,101.0,101.0,101.0,13.4,1505.2,325.7,-0.8,1.8,2470.555,13.28,0.051,270.0
2021-07-30T03:31:03,42.805,6.029,-0.04,0.012,0.004,103.0,100.0,102.0,13.4,1505.2,328.5,-0.8,1.8,2470.532,13.28,0.041,286.7
2021-07-30T03:34:03,42.805,6.029,-0.036,0.012,-0.01,102.0,102.0,100.0,13.4,1505.2,325.3,-0.7,1.8,2470.538,13.28,0.037,288.4
2021-07-30T03:37:03,42.805,6.029,-0.005,-0.012,-0.014,102.0,102.0,101.0,13.4,1505.2,327.2,-0.8,1.8,2470.548,13.28,0.013,202.6
2021-07-30T03:40:03,42.805,6.029,-0.028,0.0,-0.022,101.0,102.0,101.0,13.4,1505.2,329.9,-0.7,1.8,2470.544,13.28,0.028,270.0
2021-07-30T03:43:03,42.805,6.029,-0.02,0.009,0.02,101.0,102.0,101.0,13.3,1505.2,330.3,-0.7,1.8,2470.558,13.28,0.021,294.2
2021-07-30T03:46:03,42.805,6.029,-0.041,0.031,-0.001,101.0,102.0,100.0,13.4,1505.2,326.5,-0.8,1.8,2470.558,13.28,0.051,307.1
2021-07-30T03:49:03,42.805,6.029,-0.027,0.023,0.017,103.0,103.0,100.0,13.4,1505.2,330.5,-0.8,1.8,2470.567,13.28,0.035,310.4
2021-07-30T03:52:03,42.805,6.029,-0.039,0.03,0.005,101.0,102.0,101.0,13.4,1505.2,328.2,-0.8,1.8,2470.504,13.28,0.049,307.6
2021-07-30T03:55:03,42.805,6.029,-0.037,0.016,0.019,103.0,101.0,99.0,13.4,1505.2,329.5,-0.8,1.8,2470.558,13.28,0.04,293.4
2021-07-30T03:58:03,42.805,6.029,-0.028,0.025,0.023,101.0,103.0,100.0,13.4,1505.2,328.4,-0.7,1.8,2470.525,13.28,0.037,311.8
2021-07-30T04:04:03,42.805,6.029,-0.041,0.013,0.002,102.0,103.0,101.0,13.4,1505.2,329.4,-0.8,1.9,2470.568,13.28,0.043,287.6
2021-07-30T04:07:03,42.805,6.029,-0.06,-0.007,-0.036,103.0,102.0,101.0,13.4,1505.2,328.3,-0.7,1.8,2470.598,13.28,0.06,263.3
2021-07-30T04:10:03,42.805,6.029,-0.059,0.014,-0.008,101.0,102.0,101.0,13.4,1505.2,328.3,-0.8,1.8,2470.56,13.28,0.06,283.3
2021-07-30T04:13:03,42.805,6.029,-0.035,0.028,-0.007,102.0,102.0,101.0,13.4,1505.2,328.8,-0.7,1.8,2470.542,13.28,0.044,308.7
2021-07-30T04:16:03,42.805,6.029,-0.045,0.015,-0.018,102.0,102.0,101.0,13.4,1505.2,328.0,-0.7,1.8,2470.562,13.28,0.047,288.4
2021-07-30T04:19:03,42.805,6.029,-0.035,0.013,-0.002,101.0,102.0,100.0,13.4,1505.2,330.0,-0.8,1.8,2470.563,13.28,0.037,290.4
2021-07-30T04:22:03,42.805,6.029,-0.029,0.014,-0.041,102.0,102.0,101.0,13.3,1505.2,328.2,-0.7,1.8,2470.571,13.28,0.032,295.8
2021-07-30T04:25:03,42.805,6.029,-0.05,0.023,-0.024,102.0,103.0,101.0,13.4,1505.2,328.6,-0.8,1.8,2470.547,13.28,0.055,294.7
2021-07-30T04:28:03,42.805,6.029,-0.044,0.013,-0.046,103.0,102.0,101.0,13.4,1505.2,326.8,-0.7,1.8,2470.543,13.28,0.045,286.5
2021-07-30T04:31:03,42.805,6.029,-0.029,0.018,-0.009,102.0,102.0,100.0,13.4,1505.2,328.9,-0.8,1.9,2470.545,13.28,0.034,301.8
2021-07-30T04:34:03,42.805,6.029,-0.059,0.029,0.005,102.0,102.0,101.0,13.3,1505.2,329.0,-0.7,1.8,2470.537,13.28,0.065,296.2
2021-07-30T04:37:03,42.805,6.029,-0.044,0.017,-0.011,101.0,101.0,101.0,13.4,1505.2,325.6,-0.7,1.8,2470.531,13.28,0.047,291.1
2021-07-30T04:40:03,42.805,6.029,-0.047,0.035,-0.02,101.0,102.0,101.0,13.3,1505.2,327.2,-0.8,1.8,2470.525,13.28,0.058,306.7
2021-07-30T04:43:03,42.805,6.029,-0.039,0.015,-0.028,101.0,103.0,102.0,13.3,1505.2,326.1,-0.8,1.8,2470.531,13.28,0.041,291.0
2021-07-30T04:46:03,42.805,6.029,-0.029,0.02,0.009,102.0,102.0,100.0,13.3,1505.2,328.5,-0.7,1.8,2470.517,13.28,0.035,304.6
2021-07-30T04:49:03,42.805,6.029,-0.036,0.012,-0.008,102.0,102.0,101.0,13.3,1505.2,328.4,-0.8,1.8,2470.541,13.28,0.037,288.4
2021-07-30T04:52:03,42.805,6.029,-0.026,0.017,-0.007,99.0,103.0,100.0,13.4,1505.2,326.8,-0.7,1.8,2470.538,13.28,0.031,303.2
2021-07-30T04:55:03,42.805,6.029,-0.044,0.022,0.006,103.0,103.0,101.0,13.4,1505.2,328.1,-0.8,1.8,2470.495,13.28,0.049,296.6
2021-07-30T04:58:03,42.805,6.029,-0.072,0.041,-0.007,103.0,101.0,101.0,13.4,1505.2,326.9,-0.7,1.8,2470.54,13.28,0.082,299.7
2021-07-30T05:04:03,42.805,6.029,-0.028,0.0,-0.025,102.0,103.0,100.0,13.3,1505.2,330.1,-0.7,1.8,2470.591,13.28,0.028,270.0
2021-07-30T05:07:03,42.805,6.029,-0.027,0.007,-0.008,101.0,102.0,100.0,13.4,1505.2,327.2,-0.8,1.8,2470.547,13.28,0.027,284.5
2021-07-30T05:10:03,42.805,6.029,-0.039,0.029,0.0,101.0,102.0,101.0,13.4,1505.2,330.3,-0.8,1.8,2470.574,13.28,0.048,306.6
2021-07-30T05:13:03,42.805,6.029,-0.049,0.003,0.004,101.0,103.0,102.0,13.4,1505.2,326.0,-0.8,1.8,2470.527,13.28,0.049,273.5
2021-07-30T05:16:03,42.805,6.029,-0.03,0.01,-0.013,101.0,102.0,100.0,13.3,1505.2,330.7,-0.8,1.8,2470.516,13.28,0.031,288.4
2021-07-30T05:19:03,42.805,6.029,-0.032,0.01,-0.002,101.0,102.0,101.0,13.4,1505.2,326.9,-0.8,1.8,2470.536,13.28,0.033,287.4
2021-07-30T05:22:03,42.805,6.029,-0.041,0.024,-0.028,100.0,103.0,101.0,13.4,1505.2,328.8,-0.8,1.8,2470.519,13.28,0.047,300.3
2021-07-30T05:25:03,42.805,6.029,-0.034,0.018,-0.012,102.0,104.0,100.0,13.4,1505.2,325.2,-0.8,1.8,2470.553,13.28,0.038,297.9
2021-07-30T05:28:03,42.805,6.029,-0.053,0.032,-0.007,101.0,102.0,100.0,13.4,1505.2,328.3,-0.7,1.8,2470.506,13.28,0.061,301.1
2021-07-30T05:31:03,42.805,6.029,-0.037,0.018,-0.015,102.0,102.0,101.0,13.4,1505.2,330.7,-0.8,1.8,2470.533,13.29,0.041,295.9
2021-07-30T05:34:03,42.805,6.029,-0.028,0.021,0.029,103.0,103.0,100.0,13.4,1505.2,327.2,-0.7,1.8,2470.525,13.29,0.035,306.9
2021-07-30T05:37:03,42.805,6.029,-0.002,0.014,-0.013,101.0,101.0,100.0,13.3,1505.2,326.6,-0.8,1.8,2470.531,13.29,0.014,351.9
2021-07-30T05:40:03,42.805,6.029,-0.05,0.015,-0.026,101.0,103.0,100.0,13.4,1505.2,330.0,-0.7,1.8,2470.491,13.29,0.052,286.7
2021-07-30T05:43:03,42.805,6.029,-0.057,0.02,0.015,103.0,102.0,100.0,13.4,1505.2,325.6,-0.8,1.9,2470.504,13.29,0.06,289.3
2021-07-30T05:46:03,42.805,6.029,-0.007,0.008,0.009,101.0,102.0,101.0,13.4,1505.2,327.6,-0.8,1.8,2470.492,13.29,0.01,318.8
2021-07-30T05:49:03,42.805,6.029,-0.027,0.002,-0.038,102.0,102.0,101.0,13.4,1505.2,326.7,-0.8,1.8,2470.534,13.29,0.027,274.2
2021-07-30T05:52:03,42.805,6.029,-0.026,0.033,0.0,101.0,102.0,101.0,13.4,1505.2,330.0,-0.7,1.9,2470.532,13.29,0.042,321.8
2021-07-30T05:55:03,42.805,6.029,-0.024,-0.003,-0.015,102.0,102.0,101.0,13.4,1505.2,326.8,-0.7,1.8,2470.539,13.29,0.024,262.9
2021-07-30T05:58:03,42.805,6.029,-0.055,0.022,-0.029,101.0,104.0,100.0,13.3,1505.2,327.6,-0.7,1.8,2470.501,13.29,0.059,291.8
2021-07-30T06:04:03,42.805,6.029,-0.017,0.007,-0.015,103.0,101.0,101.0,13.4,1505.2,326.6,-0.8,1.8,2470.564,13.28,0.018,292.4
2021-07-30T06:07:03,42.805,6.029,-0.019,0.016,-0.019,102.0,102.0,100.0,13.4,1505.2,326.9,-0.7,1.8,2470.536,13.28,0.024,310.1
2021-07-30T06:10:03,42.805,6.029,-0.043,0.041,0.012,102.0,102.0,101.0,13.4,1505.2,327.0,-0.8,1.8,2470.518,13.28,0.059,313.6
2021-07-30T06:13:03,42.805,6.029,-0.035,0.026,-0.004,101.0,102.0,100.0,13.4,1505.2,325.4,-0.8,1.9,2470.51,13.29,0.043,306.6
2021-07-30T06:16:03,42.805,6.029,0.001,0.006,-0.013,102.0,101.0,101.0,13.4,1505.2,329.9,-0.8,1.8,2470.5,13.29,0.006,9.5
2021-07-30T06:19:03,42.805,6.029,-0.038,-0.001,-0.04,103.0,102.0,102.0,13.4,1505.2,328.4,-0.8,1.8,2470.504,13.29,0.038,268.5
2021-07-30T06:22:03,42.805,6.029,-0.034,0.0,-0.008,103.0,103.0,100.0,13.3,1505.2,330.2,-0.8,1.8,2470.562,13.29,0.034,270.0
2021-07-30T06:25:03,42.805,6.029,-0.028,0.029,0.0,102.0,103.0,100.0,13.3,1505.2,328.5,-0.8,1.8,2470.513,13.29,0.04,316.0
2021-07-30T06:28:03,42.805,6.029,-0.02,-0.001,-0.017,101.0,103.0,101.0,13.4,1505.2,325.6,-0.8,1.8,2470.47,13.29,0.02,267.1
2021-07-30T06:31:03,42.805,6.029,-0.012,0.003,0.012,101.0,103.0,100.0,13.3,1505.2,328.7,-0.8,1.9,2470.514,13.29,0.012,284.0
2021-07-30T06:34:03,42.805,6.029,-0.024,0.017,-0.005,102.0,102.0,101.0,13.3,1505.2,326.4,-0.8,1.8,2470.547,13.29,0.029,305.3
2021-07-30T06:37:03,42.805,6.029,-0.018,0.01,-0.005,102.0,101.0,100.0,13.4,1505.2,328.5,-0.7,1.8,2470.48,13.29,0.02,299.1
2021-07-30T06:40:03,42.805,6.029,-0.038,0.013,-0.01,102.0,101.0,100.0,13.3,1505.2,329.5,-0.8,1.9,2470.506,13.29,0.04,288.9
2021-07-30T06:43:03,42.805,6.029,-0.04,0.01,-0.025,102.0,102.0,100.0,13.4,1505.2,326.3,-0.7,1.8,2470.497,13.29,0.041,284.0
2021-07-30T06:46:03,42.805,6.029,-0.023,0.019,0.006,102.0,103.0,101.0,13.4,1505.2,328.0,-0.8,1.8,2470.512,13.29,0.029,309.6
2021-07-30T06:49:03,42.805,6.029,-0.024,0.016,-0.002,102.0,102.0,101.0,13.4,1505.2,328.8,-0.8,1.8,2470.533,13.29,0.028,303.7
2021-07-30T06:52:03,42.805,6.029,-0.016,0.008,-0.026,100.0,102.0,102.0,13.3,1505.2,326.6,-0.8,1.9,2470.513,13.29,0.017,296.6
2021-07-30T06:55:03,42.805,6.029,-0.042,0.029,-0.009,102.0,102.0,101.0,13.3,1505.2,330.7,-0.7,1.8,2470.507,13.29,0.051,304.6
2021-07-30T06:58:03,42.805,6.029,-0.01,0.019,-0.005,104.0,103.0,100.0,13.4,1505.2,329.1,-0.8,1.8,2470.528,13.29,0.021,332.2
2021-07-30T07:04:03,42.805,6.029,-0.019,0.017,-0.026,103.0,102.0,100.0,13.3,1505.2,326.0,-0.7,1.8,2470.564,13.28,0.025,311.8
2021-07-30T07:07:03,42.805,6.029,-0.028,0.012,-0.012,102.0,104.0,100.0,13.3,1505.2,330.0,-0.8,1.8,2470.544,13.28,0.03,293.2
2021-07-30T07:10:03,42.805,6.029,-0.007,0.02,-0.012,101.0,101.0,101.0,13.3,1505.2,328.9,-0.7,1.8,2470.533,13.28,0.021,340.7
2021-07-30T07:13:03,42.805,6.029,-0.026,0.025,0.002,101.0,102.0,102.0,13.4,1505.2,329.5,-0.7,1.8,2470.537,13.28,0.036,313.9
2021-07-30T07:16:03,42.805,6.029,-0.025,0.038,-0.015,102.0,103.0,100.0,13.3,1505.2,327.9,-0.7,1.8,2470.578,13.29,0.045,326.7
2021-07-30T07:19:03,42.805,6.029,-0.043,0.008,-0.028,101.0,102.0,101.0,13.4,1505.2,328.2,-0.8,1.8,2470.541,13.29,0.043,280.5
2021-07-30T07:22:03,42.805,6.029,-0.025,0.029,-0.016,102.0,102.0,101.0,13.4,1505.2,328.9,-0.7,1.8,2470.584,13.29,0.038,319.2
2021-07-30T07:25:03,42.805,6.029,-0.008,0.01,-0.012,101.0,102.0,101.0,13.3,1505.2,325.2,-0.8,1.8,2470.52,13.29,0.012,321.3
2021-07-30T07:28:03,42.805,6.029,-0.021,0.013,-0.004,102.0,102.0,101.0,13.4,1505.2,326.4,-0.7,1.8,2470.521,13.29,0.024,301.8
2021-07-30T07:31:03,42.805,6.029,-0.011,0.004,-0.013,102.0,102.0,100.0,13.4,1505.2,328.2,-0.8,1.8,2470.5,13.28,0.011,290.0
2021-07-30T07:34:03,42.805,6.029,-0.026,0.011,0.0,102.0,102.0,100.0,13.4,1505.2,325.0,-0.7,1.8,2470.537,13.29,0.028,292.9
2021-07-30T07:37:03,42.805,6.029,-0.039,0.015,-0.009,102.0,102.0,101.0,13.4,1505.2,326.3,-0.8,1.8,2470.479,13.29,0.041,291.0
2021-07-30T07:40:03,42.805,6.029,-0.003,0.023,-0.014,102.0,102.0,101.0,13.4,1505.2,325.7,-0.7,1.8,2470.481,13.29,0.023,352.6
2021-07-30T07:43:03,42.805,6.029,0.0,-0.004,-0.005,102.0,103.0,101.0,13.4,1505.2,329.2,-0.7,1.9,2470.523,13.29,0.004,180.0
2021-07-30T07:46:03,42.805,6.029,-0.026,0.011,0.015,102.0,102.0,100.0,13.4,1505.2,326.4,-0.7,1.8,2470.5,13.29,0.028,292.9
2021-07-30T07:49:03,42.805,6.029,-0.032,0.011,-0.008,102.0,103.0,100.0,13.4,1505.2,326.0,-0.8,1.8,2470.558,13.29,0.033,289.0
2021-07-30T07:52:03,42.805,6.029,-0.022,-0.002,0.002,104.0,102.0,101.0,13.3,1505.2,330.3,-0.8,1.8,2470.527,13.29,0.022,264.8
2021-07-30T07:55:03,42.805,6.029,-0.027,0.004,-0.004,102.0,103.0,100.0,13.3,1505.2,328.0,-0.7,1.9,2470.508,13.29,0.027,278.4
2021-07-30T07:58:03,42.805,6.029,-0.009,0.008,-0.003,101.0,102.0,100.0,13.4,1505.2,330.2,-0.7,1.8,2470.54,13.28,0.012,311.6
2021-07-30T08:04:03,42.805,6.029,-0.021,0.0,-0.012,103.0,102.0,100.0,13.3,1505.2,330.5,-0.8,1.9,2470.556,13.28,0.021,270.0
2021-07-30T08:07:03,42.805,6.029,-0.029,0.027,-0.003,102.0,102.0,102.0,13.3,1505.2,328.5,-0.8,1.8,2470.557,13.28,0.039,313.0
2021-07-30T08:10:03,42.805,6.029,-0.024,0.016,-0.004,103.0,102.0,101.0,13.4,1505.2,327.3,-0.7,1.9,2470.542,13.28,0.028,303.7
2021-07-30T08:13:03,42.805,6.029,-0.021,0.017,0.002,102.0,102.0,100.0,13.4,1505.2,327.6,-0.8,1.9,2470.555,13.28,0.027,309.0
2021-07-30T08:16:03,42.805,6.029,-0.018,0.015,0.002,103.0,102.0,100.0,13.4,1505.2,328.3,-0.7,1.8,2470.578,13.29,0.023,309.8
2021-07-30T08:19:03,42.805,6.029,-0.008,0.01,0.017,102.0,103.0,101.0,13.4,1505.2,326.9,-0.7,1.8,2470.538,13.29,0.012,321.3
2021-07-30T08:22:03,42.805,6.029,-0.011,0.022,-0.007,102.0,104.0,101.0,13.3,1505.2,325.6,-0.7,1.8,2470.569,13.29,0.024,333.4
2021-07-30T08:25:03,42.805,6.029,-0.025,0.002,0.018,101.0,102.0,101.0,13.4,1505.2,326.6,-0.7,1.8,2470.58,13.29,0.025,274.6
2021-07-30T08:28:03,42.805,6.029,-0.019,0.007,-0.013,101.0,102.0,101.0,13.3,1505.2,325.3,-0.7,1.8,2470.511,13.29,0.02,290.2
2021-07-30T08:31:03,42.805,6.029,-0.011,0.007,-0.015,103.0,103.0,100.0,13.4,1505.2,326.4,-0.8,1.8,2470.521,13.29,0.013,302.5
2021-07-30T08:34:03,42.805,6.029,-0.015,0.011,-0.007,102.0,102.0,101.0,13.4,1505.2,326.9,-0.8,1.8,2470.552,13.29,0.018,306.3
2021-07-30T08:37:03,42.805,6.029,-0.022,0.007,-0.005,103.0,102.0,101.0,13.4,1505.2,326.6,-0.7,1.8,2470.57,13.29,0.023,287.6
2021-07-30T08:40:03,42.805,6.029,-0.021,0.016,0.011,103.0,102.0,101.0,13.4,1505.2,327.2,-0.8,1.8,2470.555,13.29,0.026,307.3
2021-07-30T08:43:03,42.805,6.029,-0.032,0.006,-0.037,101.0,103.0,100.0,13.4,1505.2,325.9,-0.8,1.8,2470.554,13.29,0.032,280.6
2021-07-30T08:46:03,42.805,6.029,-0.002,0.017,-0.018,102.0,103.0,101.0,13.3,1505.2,326.5,-0.7,1.8,2470.533,13.29,0.017,353.3
2021-07-30T08:49:03,42.805,6.029,-0.036,0.022,-0.022,102.0,102.0,101.0,13.4,1505.2,325.2,-0.7,1.8,2470.533,13.29,0.042,301.4
2021-07-30T08:52:03,42.805,6.029,-0.023,-0.002,-0.023,102.0,102.0,101.0,13.4,1505.2,327.8,-0.7,1.8,2470.521,13.29,0.023,265.0
2021-07-30T08:55:03,42.805,6.029,-0.01,0.01,-0.033,102.0,102.0,101.0,13.3,1505.2,325.3,-0.7,1.8,2470.558,13.29,0.014,315.0
2021-07-30T08:58:03,42.805,6.029,-0.045,0.013,-0.01,102.0,102.0,101.0,13.4,1505.2,330.6,-0.8,1.9,2470.541,13.29,0.046,286.1
2021-07-30T09:04:03,42.805,6.029,-0.02,0.002,-0.017,102.0,103.0,100.0,13.4,1505.2,324.8,-0.8,1.8,2470.576,13.28,0.02,275.7
2021-07-30T09:07:03,42.805,6.029,0.001,0.0,-0.009,102.0,104.0,100.0,13.4,1505.2,328.7,-0.7,1.8,2470.609,13.28,0.001,90.0
2021-07-30T09:10:03,42.805,6.029,-0.007,-0.003,-0.033,102.0,104.0,100.0,13.3,1505.2,327.7,-0.8,1.8,2470.581,13.28,0.007,246.8
2021-07-30T09:13:03,42.805,6.029,0.003,0.009,-0.001,102.0,103.0,102.0,13.3,1505.2,325.5,-0.7,1.9,2470.613,13.28,0.009,18.4
2021-07-30T09:16:03,42.805,6.029,-0.014,-0.007,-0.042,103.0,102.0,101.0,13.4,1505.2,329.2,-0.8,1.8,2470.564,13.28,0.015,243.4
2021-07-30T09:19:03,42.805,6.029,-0.016,0.008,-0.018,103.0,103.0,100.0,13.3,1505.2,328.6,-0.7,1.9,2470.587,13.28,0.017,296.6
2021-07-30T09:22:03,42.805,6.029,-0.018,-0.001,-0.003,103.0,103.0,101.0,13.3,1505.2,328.6,-0.7,1.8,2470.538,13.29,0.018,266.8
2021-07-30T09:25:03,42.805,6.029,-0.005,0.011,-0.016,101.0,102.0,101.0,13.4,1505.2,328.1,-0.8,1.8,2470.584,13.29,0.012,335.6
2021-07-30T09:28:03,42.805,6.029,-0.023,0.022,-0.029,103.0,103.0,101.0,13.4,1505.2,329.7,-0.8,1.8,2470.558,13.29,0.031,313.7
2021-07-30T09:31:03,42.805,6.029,-0.027,0.016,-0.032,101.0,102.0,102.0,13.4,1505.2,324.9,-0.7,1.8,2470.556,13.29,0.031,300.7
2021-07-30T09:34:03,42.805,6.029,-0.024,0.01,0.008,101.0,102.0,102.0,13.3,1505.2,329.0,-0.8,1.8,2470.551,13.29,0.026,292.6
2021-07-30T09:37:03,42.805,6.029,-0.008,0.013,-0.016,102.0,102.0,102.0,13.4,1505.2,326.0,-0.7,1.8,2470.562,13.29,0.015,328.4
2021-07-30T09:40:03,42.805,6.029,-0.004,0.022,0.003,102.0,103.0,102.0,13.4,1505.2,328.3,-0.7,1.8,2470.595,13.29,0.022,349.7
2021-07-30T09:43:03,42.805,6.029,-0.03,-0.008,-0.011,103.0,102.0,101.0,13.4,1505.2,329.6,-0.7,1.8,2470.599,13.29,0.031,255.1
2021-07-30T09:46:03,42.805,6.029,-0.026,0.008,0.002,103.0,102.0,102.0,13.3,1505.2,326.8,-0.7,1.8,2470.58,13.29,0.027,287.1
2021-07-30T09:49:03,42.805,6.029,-0.022,0.012,0.0,102.0,103.0,101.0,13.4,1505.2,330.6,-0.8,1.8,2470.597,13.29,0.025,298.6
2021-07-30T09:52:03,42.805,6.029,-0.023,-0.016,-0.025,103.0,102.0,102.0,13.3,1505.2,326.3,-0.7,1.8,2470.549,13.29,0.028,235.2
2021-07-30T09:55:03,42.805,6.029,-0.02,0.0,-0.018,102.0,101.0,101.0,13.4,1505.2,326.3,-0.8,1.8,2470.564,13.29,0.02,270.0